Overview Statistics Trail Chart Weather Telemetry Raw packets
 

This is the latest recevied weather packets stored in our database for station/object HB9FHL-13. If no packets are shown the sender has not sent any weather packets the latest 10 day(s).

<< 110 111 112 113 114 115 116 >>
Time Temp. Humidity Pressure Rain* Wind** Luminosity Snow
1787975518 16.11° C - 1017.8 hPa 0 mm - - -
1787975217 16.11° C - 1020.7 hPa 0 mm - - -
1787974917 15.56° C - 1018.6 hPa 0 mm - - -
1787974616 15.56° C - 1020.3 hPa 0 mm - - -
1787974316 15.56° C - 1022.5 hPa 0 mm - - -
1787974015 15° C - 1019.4 hPa 0 mm - - -
1787973786 15.56° C - 1019.1 hPa 0 mm - - -
1787973713 15.56° C - 1019.1 hPa 0 mm - - -
1787973413 15.56° C - 1020.3 hPa 0 mm - - -
1787973112 16.11° C - 1019.1 hPa 0 mm - - -
1787972812 15.56° C - 1019.1 hPa 0 mm - - -
1787972511 16.11° C - 1021 hPa 0 mm - - -
1787972211 15.56° C - 1017.2 hPa 0 mm - - -
1787971910 16.67° C - 1019.4 hPa 0 mm - - -
1787971610 16.67° C - 1015.3 hPa 0 mm - - -
1787971310 16.11° C - 1023.4 hPa 0 mm - - -
1787971059 15.56° C - 1019.3 hPa 0 mm - - -
1787971009 15.56° C - 1019.3 hPa 0 mm - - -
1787970743 17.22° C - 1016.3 hPa 0 mm - - -
1787970709 17.22° C - 1016.3 hPa 0 mm - - -
1787970408 16.67° C - 1020.7 hPa 0 mm - - -
1787970301 16.67° C - 1021 hPa 0 mm - - -
1787970108 16.67° C - 1021 hPa 0 mm - - -
1787969807 16.11° C - 1019.9 hPa 0 mm - - -
1787969507 15.56° C - 1020.7 hPa 0 mm - - -

* Rain since midnight (hover to see other rain measurements)
** Current wind speed in m/s (hover to see current wind gust speed)